User: anonymous   Login
Location: Unspecified
(0.0000°N, 0.0000°E)
Time: 18:31:08
(UTC+00:00)
Language:

DNEPR OBJECT AC - Orbit

View from above orbital plane
View from above orbital plane
View from above satellite
View from above satellite

Ground track
Ground track

The orbit data is extracted from the following two-line orbital elements,

1 39442U 13066AC  18052.71578468  .00000345  00000-0  40596-4 0  9990
2 39442  97.6157 110.6446 0033350 113.5109 246.9620 14.90433831229856
Epoch (UTC): 21 February 2018 17:10:43
Eccentricity: 0.0033350
inclination: 97.6157°
perigee height: 573 km
apogee height: 620 km
right ascension of ascending node: 110.6446°
argument of perigee: 113.5109°
revolutions per day: 14.90433831
mean anomaly at epoch: 246.9620°
orbit number at epoch: 22985

The dashed part of the orbit path shows where the satellite is in the earth's shadow,  

DLR